Regional Weather Roundup
Issued by NWS Green Bay, WI

Home | Current Version | Previous Version | Graphics & Text | Print | Product List | Glossary Off
Versions: 1 2 3 4 5 6 7 8 9 10 11 12 13 14 15 16 17 18 19 20 21 22 23 24 25 26 27 28 29 30 31 32 33 34 35 36 37 38 39 40 41 42 43 44 45 46 47 48 49 50

000
ASUS43 KGRB 011959
RWRGRB

NORTH-CENTRAL AND NORTHEAST WISCONSIN REGIONAL WEATHER ROUNDUP
NATIONAL WEATHER SERVICE GREEN BAY WI
300 PM CDT WED APR 01 2015

WIZ005-009-010>012-018-019-012100-
NORTH CENTRAL WISCONSIN

CITY           SKY/WX    TMP DP  RH WIND       PRES   REMARKS
IRONWOOD       CLOUDY    57  34  41 S15G24    29.59F
MANITOWISH WTR NOT AVBL
ARBOR VITAE    NOT AVBL
EAGLE RIVER    NOT AVBL
LAND O LAKES   NOT AVBL
RHINELANDER    PTSUNNY   58  33  39 S15G25    29.74F
PHILLIPS       NOT AVBL
ANTIGO         NOT AVBL
TOMAHAWK       NOT AVBL
MERRILL        NOT AVBL
$$

WIZ013-073-012100-
NORTHEAST WISCONSIN

CITY           SKY/WX    TMP DP  RH WIND       PRES   REMARKS
IRON MOUNTAIN  PTSUNNY   53  30  41 SE18      29.81F
MARINETTE      MOSUNNY   43  32  65 SE12      29.90F
$$

WIZ017-030-035>037-045-012100-
CENTRAL WISCONSIN

CITY           SKY/WX    TMP DP  RH WIND       PRES   REMARKS
MEDFORD        NOT AVBL
WAUSAU         MOSUNNY   64  35  34 S15G26    29.74F
MOSINEE        SUNNY     64  34  32 S22G28    29.78F
MARSHFIELD     PTSUNNY   69  36  29 S18G29    29.73F
WISC RAPIDS    MOSUNNY   72  30  21 S16G24    29.77F
STEVENS POINT  NOT AVBL
WAUPACA        NOT AVBL
SHAWANO        NOT AVBL
CLINTONVILLE   NOT AVBL
$$

WIZ038-039-048-051-012100-
FOX VALLEY

CITY           SKY/WX    TMP DP  RH WIND       PRES   REMARKS
NWS GREEN BAY  SUNNY     57  38  48 SE17      29.87F
APPLETON       MOSUNNY   61  34  36 SE14      29.86
OSHKOSH        SUNNY     64  38  38 SE16G25   29.84F
FOND DU LAC    SUNNY     65  38  36 SE20      29.85F
$$

WIZ022-050-052-012100-
EAST CENTRAL WISCONSIN

CITY           SKY/WX    TMP DP  RH WIND       PRES   REMARKS
STURGEON BAY   PTSUNNY   45  36  70 SE21      29.92F
MANITOWOC      NOT AVBL
SHEBOYGAN      SUNNY     50  37  61 S14G22    29.93F
$$

LMZ563-521-522-541>543-012100-
LAKESHORE

STATION/POSITION TIME  TEMP    WIND        PRES    VSBY  WAVE
                       AIR SEA DIR/SP/G                  HT/PER
                 (UTC) (F)     (DEG/KT/KT) (MB)    (MI)  (FT/S)
SHEBOYGAN LKSHOR 1900   36     160/  7/  8 1015.6F
KEWAUNEE LKSHORE 1900   37     160/  9/ 10 1013.4F
NORTHPORT PIER   1900   34     140/ 10/ 11 1014.2F
CHAMBERS ISLAND  1900   45     120/  8/ 15 1013.5F
MENOMINEE LKSHOR 1900   35      50/  5     1013.8F
$$



USA.gov is the U.S. government's official web portal to all federal, state and local government web resources and services.